Location: Greenwich
(51.4790°N, 0.0090°E)
Time: 23:11:22
(UTC+01:00)

Altair - Pass Details

Date: 26 April 2024
Orbit: 1502 x 1682 km, 47.2° (Epoch: 23 May)

Event Time Altitude Azimuth Distance (km) Brightness Sun altitude
Rises 17:57:33 0° 219° (SW) 4,925 10.8 20.1°
Reaches altitude 10° 18:00:56 10° 213° (SSW) 3,936 10.2 19.6°
Maximum altitude 18:10:11 42° 147° (SSE) 2,219 8.3 18.2°
Drops below altitude 10° 18:19:14 10° 81° (E) 3,864 9.1 16.7°
Sets 18:22:30 0° 75° (ENE) 4,828 9.5 16.2°
